P/2005 W3 (Kowalski)

Epoch 2005 Aug. 18.0 TT = JDT 2453600.5  

T 2005 Aug. 23.04982 TT                                 Nakano

q   3.0084403            (2000.0)            P               Q

n   0.06075556     Peri.  199.23494     +0.63936237     -0.75391090

a   6.4083372      Node   211.56568     +0.73786876     +0.65686190

e   0.5305428      Incl.   16.77811     +0.21625324     -0.01228015

P  16.22 (+/- 0.09 day)

From 115 observations 2005 Sept. 30-2006 Mar. 24, mean residual 0".71.

Residuals in seconds of arc 

2005/                     051129 213  0.0   0.1-    051210 213  0.0   0.3-  

050930 703 (2.6-  1.3+)   051129 213  0.2-  0.4-    051210 213  0.2+  0.2-  

050930 703  0.1+  0.1-    051130 D88  1.0-  0.6+    051210 213  0.3+  0.2-  

050930 703  0.9-  0.0     051130 D88  1.2-  0.7+    051210 232  0.4+  0.1+  

050930 703  1.9-  0.8+    051130 D88  1.1-  0.2+    051215 213  0.1-  0.5-  

051124 644  0.8+  0.2-    051130 D83  0.6-  0.5-    051215 213  0.0   0.7-  

051124 644  1.1+  0.1-    051130 D83  1.2+  0.9-    051215 213  0.0   0.7-  

051124 644  0.7+  0.3-    051130 D83  0.9+  0.3-    051219 213  0.6+  0.8-  

051125 703  1.6-  0.1+    051130 D83  0.7+  0.2+    051219 213  0.4+  0.7-  

051125 703  0.1-  0.8+    051130 147  0.8+  0.9-    051219 213  0.4+  0.5-  

051125 703  0.8+  0.3+    051130 147  1.0+  0.5-    051224 703  0.6-  0.2+  

051125 703 (2.0-  0.7+)   051130 213  0.5+  0.0     051224 703 (2.1-  2.1-) 

051125 703 (2.2-  1.4+)   051130 213  0.5+  0.1-    051224 703  1.5-  1.9-  

051125 703  1.8-  0.6+    051130 213  0.6+  0.0     051224 703  1.3-  0.4-  

051125 703  0.7-  1.3+    051201 204  0.5+  0.1+    051225 349  0.2+  0.1-  

051125 703  1.9-  0.0     051201 204  0.1-  0.3+    051225 349  0.2+  0.0   

051125 703  1.2-  0.3+    051201 204  0.0   0.1+    051225 349  0.3+  0.1-  

051125 703  1.9-  1.2+    051201 204  0.2-  0.1+    051229 644  0.1+  0.2+  

051125 703  1.7-  1.5+    051204 213  0.7+  0.6-    051229 644  0.5-  0.0   

051125 G96  0.3-  0.4-    051204 213  0.7+  0.7-    051229 644  0.0   0.2-  

051125 703 (2.5-  1.2+)   051204 213  0.6+  0.7-    051229 415  0.1+  0.4-  

051125 G96  0.3+  0.3-    051204 170  1.1-  0.3+    051229 415  0.8+  0.5+  

051125 G96  0.4+  0.6-    051204 170  0.5-  0.6+    2006/                   

051125 G96  1.0+  0.6-    051204 170  0.3-  0.8+    060101 213  0.5-  0.8+  

051126 734  0.1-  0.4-    051204 170  0.3-  0.7+    060101 213  0.5-  0.9+  

051126 734  0.3-  0.0     051204 372  0.2+  0.2-    060101 213  0.5+  0.3+  

051126 734  1.0+  0.4-    051206 704  1.4+  0.2+    060105 699  1.9-  0.1-  

051126 711 (2.2+  3.1+)   051206 704  0.6+  0.1+    060105 699  0.5-  0.4-  

051126 854  0.4-  1.7-    051206 704  0.9+  0.9+    060105 699 (0.4-  2.1+) 

051127 J95  0.8+  0.5+    051206 372  0.2+  1.8+    060105 699  0.0   0.3+  

051127 J95  0.5+  0.1-    051206 372  1.2+  1.7+    060107 204  0.6+  0.2+  

051127 J95  0.5+  0.2+    051208 349  0.7-  1.0+    060107 204  0.8-  0.1+  

051127 372  1.2+  0.1-    051208 349  0.2-  0.7+    060107 673  0.7+  0.2+  

051127 213  0.4+  0.3-    051208 372  1.3+  1.3+    060107 673  0.0   0.2-  

051127 213  0.2+  0.2-    051208 A79 (0.7+  2.2+)   060107 673  0.7+  0.2-  

051127 213  0.2+  0.1-    051209 A79  1.0+  1.7+    060107 673  0.7+  0.2-  

051127 213  0.3+  0.1+    051209 A79  1.1-  1.3-    060119 215  1.0-  1.1+  

051129 372  0.4-  0.3+    051209 A79  0.5-  1.0-    060324 G96  0.5-  0.3+  

051129 349  0.1+  1.3-    051209 147  0.5+  0.4-    060324 G96  0.4-  0.1-  

051129 349  0.2-  0.8-    051209 147  0.6+  0.0     060324 G96  0.9-  0.2+  

051129 349  0.1-  0.6-    051210 232  0.1-  0.8-    060324 G96  0.2+  0.2+  

051129 213  0.0   0.0     051210 232  0.1-  0.5-                            



NAKANO

         **** Don't distribute anyone except personal use only ****

                (C) Copyright 2006 OAA/ComputingSection

write mail from CFAD0::NAKANO on 2006-06-20 02:59:54(JST).





    P/2005 W3 (Kowalski)

Epoch 2005 Aug. 18.0 TT = JDT 2453600.5  

T 2005 Aug. 23.10351 TT                                 Nakano

q   3.0083507            (2000.0)            P               Q

n   0.06076766     Peri.  199.24830     +0.63921736     -0.75403794

a   6.4074863      Node   211.56329     +0.73799641     +0.65671570

e   0.5304944      Incl.   16.77695     +0.21624630     -0.01229935

P  16.22 (+/- 0.09 day)

From 106 observations 2005 Sept. 30-2006 Jan. 19, mean residual 0".68.



NAKANO

         **** Don't distribute anyone except personal use only ****

                (C) Copyright 2006 OAA/ComputingSection

write mail from CFAD0::NAKANO on 2006-02-06 06:49:21(JST).

 

    P/2005 W3 (Kowalski)

T 2005 Aug. 23.09822 TT                                 Nakano

q   3.0083627            (2000.0)            P               Q

n   0.06077640     Peri.  199.24737     +0.63923069     -0.75402684

a   6.4068722      Node   211.56320     +0.73798479     +0.65672854

e   0.5304475      Incl.   16.77687     +0.21624654     -0.01229416

P  16.22 (+/- 0.12 day)

From 97 observations 2005 Sept. 30-Dec. 29.



NAKANO

         **** Don't distribute anyone except personal use only ****

                (C) Copyright 2006 OAA/ComputingSection

write mail from CFAD0::NAKANO on 2006-01-01 05:09:23(JST).

 





    P/2005 W3 (Kowalski)

T 2005 Aug. 23.07870 TT                                 Nakano

q   3.0086092            (2000.0)            P               Q

n   0.06074527     Peri.  199.23994     +0.63925759     -0.75399514

a   6.4090607      Node   211.56868     +0.73795784     +0.65676420

e   0.5305694      Incl.   16.77926     +0.21625901     -0.01233326

P  16.23 (+/- 0.59 day)

From 60 observations 2005 Sept. 30-Dec. 4.



NAKANO

         **** Don't distribute anyone except personal use only ****

                (C) Copyright 2005 OAA/ComputingSection

write mail from CFAD0::NAKANO on 2005-12-08 01:42:10(JST).

 

◎P/2005 W3の軌道と予報位置です    [From YC 2495]



コワルスキ新彗星  C/2005 W3 (Kowalski)

  カテリナ・スカイサーベイで2005年11月25日にオリオン座を撮影した捜索フレ

ーム上の次の位置にコワルスキ(Richard Kowalski)が18等級の新彗星を発見し

たことが報告された.発見当時,彗星は20"のコマがあって,西に尾が見られた.

発見同日,クリステンセン(E. J. Christensen, Mt. Lemmon)によるマウント

・レモンの1.5-m反射での観測では西に20"の尾が見られ,彗星には,10"のコマ

があり,よく集光していた.マクドナルドのリーズ(J. G. Ries, McDonald)に

よる76-cm反射での11月26日の観測では,彗星は拡散し,西北西に20"の尾が見ら

れた.また,バートホイッスル(P. Birtwhistle, Berkshire)の40-cm反射での

観測では集光した6"のコマと西北西に14"の直線状の幅8"の尾が見られた.発見前

日24日の観測がパロマーNEATサーベイから報告されている(IAUC 8634).



   2005 UT             α     (2000)     δ             Mag.

   Nov. 25.31896   05h 02m 28s.03   +06゚ 52' 30".0      18.2



  OAA計算課では,2005年11月24日から27日までに行なわれた26個の観測から次の

軌道を決定した.彗星は,周期が30年前後の新周期彗星であろう.なお,周期は

大きく不確かである.



   T = 2005 May 5.626 TT

   ω = 170o.278                  e =   0.66941

   Ω = 219.426    (2000.0)       a =   9.3881 AU

   i =  20.824                   n゚=   0.0342642

   q =   3.10357 AU              P =  29 年



2005/2006    α  (2000) δ      △      r    Daily Motion  Elong. Phase    m1 

  0h TT     h  m       。  ,        AU      AU     ,     。      。      。      等

Nov. 26   05 02.09  +06 48.4    2.549   3.495   10.2/238    160.6    5.4   18.5

Dec.  6   04 56.33  +05 53.6    2.575   3.530    9.4/243    163.4    4.6   18.5

     16   04 50.71  +05 11.5    2.631   3.567    7.8/249    159.1    5.7   18.6

     26   04 45.83  +04 43.1    2.714   3.605    5.7/255    150.9    7.6   18.7

Jan.  5   04 42.15  +04 28.4    2.822   3.644    3.2/266    141.5    9.7   18.9

     15   04 40.02  +04 26.2    2.953   3.684    1.1/321    131.9   11.5   19.0

     25   04 39.58  +04 34.5    3.103   3.724    2.5/ 49    122.4   12.9   19.2

Feb.  4   04 40.85  +04 51.0    3.266   3.766    4.9/ 63    113.2   13.9   19.3

     14   04 43.77  +05 13.2    3.440   3.808    7.1/ 69    104.4   14.5   19.5

     24   04 48.18  +05 39.0    3.621   3.851    9.0/ 72     95.9   14.8   19.6

Mar.  6   04 53.95  +06 06.4    3.805   3.894   10.7/ 75     87.8   14.7   19.8 

                    m1 = 11.0 + 5 log △ + 10.0 log r





  その後の追跡観測から2005年9月30日の発見前の観測が見つかった.上尾の

門田健一氏からも,11月29日の観測が報告され,軌道が次のように決まった.

山本速報2495で予測したとおり,短周期彗星の1つであった.なお,門田氏

の CCD全光度は18.4等と報告された.



    P/2005 W3 (Kowalski)

T 2005 Aug. 23.57277 TT                                 Nakano

q   3.0101659            (2000.0)            P               Q

n   0.06079048     Peri.  199.35306     +0.63753781     -0.75542213

a   6.4058827      Node   211.58638     +0.73944023     +0.65511010

e   0.5300935      Incl.   16.78641     +0.21627226     -0.01296787

P  16.21 (+/- 1.45 day)

From 40 observations 2005 Sept. 30-Nov. 29.

 

Date/        TT  R.A.(2000) Decl.     Delta   r     Daily motion  Mag.  Moon Age

              h    h  m       。  ,                      ,  / PA 。  m1      。

2005 Dec.  1 14  04 58.87  +06 16.5   2.138  3.095    10.3 / 239  18.1  159  .00

           2 14  04 58.28  +06 11.2   2.139  3.096    10.2 / 240  18.1  157  .01

           3 14  04 57.68  +06 06.1   2.141  3.098    10.2 / 240  18.1  148  .05

           4 14  04 57.09  +06 01.1   2.142  3.100    10.1 / 241  18.1  137  .11

           5 14  04 56.50  +05 56.2   2.144  3.102    10.0 / 242  18.1  124  .20

           6 14  04 55.90  +05 51.4   2.147  3.103    10.0 / 243  18.1  111  .30

           7 14  04 55.31  +05 46.8   2.149  3.105     9.9 / 243  18.1   97  .41

           8 14  04 54.72  +05 42.4   2.152  3.107     9.8 / 244  18.1   84  .52

           9 14  04 54.13  +05 38.1   2.155  3.108     9.7 / 245  18.1   71  .63

          10 14  04 53.55  +05 33.9   2.158  3.110     9.5 / 245  18.1   58  .73

          11 14  04 52.97  +05 30.0   2.162  3.112     9.4 / 246  18.1   46  .82

          12 14  04 52.39  +05 26.1   2.166  3.114     9.3 / 247  18.1   35  .90

          13 14  04 51.82  +05 22.4   2.170  3.116     9.1 / 247  18.1   26  .95

          14 14  04 51.26  +05 18.9   2.174  3.118     9.0 / 248  18.1   21  .99

          15 14  04 50.70  +05 15.5   2.179  3.119     8.8 / 249  18.1   24 1.00

          16 14  04 50.15  +05 12.3   2.184  3.121     8.6 / 249  18.1   32  .99

          17 14  04 49.61  +05 09.2   2.189  3.123     8.4 / 250  18.1   42  .96

          18 14  04 49.08  +05 06.3   2.195  3.125     8.3 / 251  18.2   52  .92

          19 14  04 48.56  +05 03.5   2.200  3.127     8.1 / 251  18.2   63  .86

          20 14  04 48.05  +05 01.0   2.206  3.129     7.9 / 252  18.2   74  .79

          21 14  04 47.55  +04 58.5   2.213  3.131     7.7 / 253  18.2   86  .70

          22 14  04 47.06  +04 56.3   2.219  3.133     7.4 / 253  18.2   97  .62

          23 14  04 46.58  +04 54.1   2.226  3.135     7.2 / 254  18.2  108  .52

          24 14  04 46.12  +04 52.2   2.233  3.137     7.0 / 255  18.2  119  .43

          25 14  04 45.67  +04 50.4   2.240  3.139     6.7 / 256  18.2  130  .33

          26 14  04 45.23  +04 48.8   2.248  3.141     6.5 / 257  18.2  141  .24

          27 14  04 44.81  +04 47.3   2.256  3.143     6.3 / 258  18.2  151  .16

          28 14  04 44.40  +04 46.0   2.264  3.145     6.0 / 259  18.3  157  .09

          29 14  04 44.00  +04 44.8   2.272  3.147     5.7 / 260  18.3  157  .03

          30 14  04 43.63  +04 43.8   2.280  3.149     5.5 / 261  18.3  149  .01

          31 14  04 43.27  +04 42.9   2.289  3.151     5.2 / 262  18.3  138  .00

2006 Jan.  1 14  04 42.92  +04 42.2   2.298  3.153     4.9 / 264  18.3  125  .03

NAKANO

         **** Don't distribute anyone except personal use only ****

                (C) Copyright 2005 OAA/ComputingSection

write mail from CFAD0::NAKANO on 2005-12-01 05:57:10(JST).

 



戻ります。